This is the latest recevied weather packets stored in our database for station/object SQ9CIE-4. If no packets are shown the sender has not sent any weather packets the latest 1 day(s).
| Time | Temp. | Humidity | Pressure | Rain* | Wind** | Luminosity | Snow |
|---|---|---|---|---|---|---|---|
| 1777975858 | 25° C | 27% | 1007.3 hPa | 0 mm | 6.71 m/s, 160° | 689 W/m² | - |
| 1777975558 | 23.89° C | 28% | 1007.3 hPa | 0 mm | 5.36 m/s, 253° | 716 W/m² | - |
| 1777975258 | 23.89° C | 28% | 1007.5 hPa | 0 mm | 7.15 m/s, 169° | 501 W/m² | - |
| 1777974958 | 23.89° C | 30% | 1007.5 hPa | 0 mm | 5.36 m/s, 211° | 635 W/m² | - |
| 1777974658 | 23.89° C | 29% | 1007.7 hPa | 0 mm | 8.94 m/s, 181° | 614 W/m² | - |
| 1777974058 | 23.89° C | 29% | 1007.8 hPa | 0 mm | 10.28 m/s, 180° | 620 W/m² | - |
| 1777973758 | 23.89° C | 30% | 1007.9 hPa | 0 mm | 9.39 m/s, 153° | 655 W/m² | - |
| 1777973458 | 23.89° C | 30% | 1008 hPa | 0 mm | 7.6 m/s, 153° | 678 W/m² | - |
| 1777973158 | 23.89° C | 30% | 1008.4 hPa | 0 mm | 6.71 m/s, 150° | 700 W/m² | - |
| 1777972858 | 23.89° C | 30% | 1008 hPa | 0 mm | 9.83 m/s, 196° | 597 W/m² | - |
| 1777972558 | 23.89° C | 30% | 1008.2 hPa | 0 mm | 9.83 m/s, 198° | 598 W/m² | - |
| 1777972258 | 23.89° C | 31% | 1008.2 hPa | 0 mm | 7.15 m/s, 161° | 618 W/m² | - |
| 1777971958 | 22.78° C | 31% | 1008.3 hPa | 0 mm | 5.36 m/s, 267° | 627 W/m² | - |
| 1777971658 | 22.78° C | 30% | 1008.5 hPa | 0 mm | 8.49 m/s, 140° | 531 W/m² | - |
| 1777971358 | 22.78° C | 32% | 1008.6 hPa | 0 mm | 4.47 m/s, 217° | 350 W/m² | - |
| 1777971058 | 22.78° C | 32% | 1008.6 hPa | 0 mm | 5.81 m/s, 194° | 625 W/m² | - |
| 1777970758 | 22.78° C | 32% | 1008.7 hPa | 0 mm | 7.6 m/s, 126° | 640 W/m² | - |
| 1777970458 | 22.78° C | 31% | 1008.7 hPa | 0 mm | 10.73 m/s, 157° | 450 W/m² | - |
| 1777970158 | 22.78° C | 32% | 1008.9 hPa | 0 mm | 4.02 m/s, 171° | 425 W/m² | - |
| 1777969858 | 22.78° C | 32% | 1008.7 hPa | 0 mm | 4.47 m/s, 160° | 401 W/m² | - |
| 1777969558 | 22.78° C | 32% | 1008.7 hPa | 0 mm | 6.26 m/s, 197° | 512 W/m² | - |
| 1777969258 | 22.78° C | 32% | 1008.9 hPa | 0 mm | 6.26 m/s, 223° | 403 W/m² | - |
| 1777968958 | 22.78° C | 33% | 1008.8 hPa | 0 mm | 3.58 m/s, 142° | 405 W/m² | - |
| 1777968658 | 22.78° C | 33% | 1009 hPa | 0 mm | 7.15 m/s, 127° | 421 W/m² | - |
| 1777968358 | 22.78° C | 33% | 1009.1 hPa | 0 mm | 5.36 m/s, 155° | 418 W/m² | - |
* Rain latest hour (hover to see other rain measurements)
** Current wind speed in m/s (hover to see current wind gust speed)